Regional Weather Roundup
Issued by NWS

Home | Current Version | Previous Version | Text Only | Print | Product List | Glossary Off
Versions: 1 2 3 4 5 6 7 8 9 10 11 12 13 14 15 16 17 18 19 20 21 22 23 24 25 26 27 28 29 30 31 32 33 34 35 36 37 38 39 40 41 42 43 44 45 46 47 48 49 50

549
ASUS44 KJAN 302310
RWRMS

MISSISSIPPI HOURLY WEATHER ROUNDUP
NATIONAL WEATHER SERVICE JACKSON MS
600 PM CDT WED JUL 30 2014

NOTE: "FAIR: INDICATES FEW OR NO CLOUDS BELOW 12,000 FEET WITH NO
SIGNIFICANT WEATHER AND/OR OBSTRUCTIONS TO VISIBILITY.

MSZ001>002-007>008-010>013-018>021-025>028-034>036-310000-
NORTHWEST MISSISSIPPI

CITY           SKY/WX    TMP DP  RH WIND       PRES   REMARKS
CLARKSDALE     FAIR      81  64  57 CALM      30.08S
CLEVELAND      FAIR      78  67  68 N3        30.06S
GREENWOOD      CLOUDY    80  62  54 N5        30.07S
GREENVILLE     CLOUDY    80  64  58 NW3       30.06F
GRENADA        FAIR      77  59  53 N6        30.07S
OLIVE BRANCH   CLOUDY    77  63  61 S5        30.07F
OXFORD         FAIR      77  59  53 CALM      30.09F
TUNICA         CLOUDY    79  61  53 CALM      30.07F
$$

MSZ003>006-009-014>017-022>024-029>033-037>039-310000-
NORTHEAST MISSISSIPPI

CITY           SKY/WX    TMP DP  RH WIND       PRES   REMARKS
BELMONT        FAIR      77  58  52 N3        30.07F
COLUMBUS AFB   MOSUNNY   80  58  47 N8        30.06S
CORINTH        FAIR      79  57  47 N6        30.07S
GOLDN TRIANGLE SUNNY     84  59  42 N7        30.07S
STARKVILLE     FAIR      79  57  47 N5        30.06F
TUPELO         PTSUNNY   79  58  48 N6        30.06F
$$

MSZ040-058-310000-
CENTRAL MISSISSIPPI

CITY           SKY/WX    TMP DP  RH WIND       PRES   REMARKS
JACKSON INTL   PTSUNNY   84  57  39 N8        30.04F
JACKSON HAWKNS MOSUNNY   83  58  42 N7        30.05F
MERIDIAN KEY   SUNNY     83  53  35 N9        30.03S
MERIDIAN NAS   PTSUNNY   82  56  40 N8        30.04S
RAYMOND        FAIR      82  77  83 CALM      30.05S HX  91
VICKSBURG      MOSUNNY   84  61  45 NE9       30.04F
$$

MSZ059>079-310000-
SOUTH MISSISSIPPI

CITY           SKY/WX    TMP DP  RH WIND       PRES   REMARKS
BROOKHAVEN     FAIR      82  61  47 N6        30.05F
COLUMBIA       FAIR      84  59  42 NE5       30.01S
HATTIESBURG    SUNNY     85  57  38 NE7       30.02F
MCCOMB         SUNNY     84  57  39 N7        30.03S
NATCHEZ        SUNNY     81  63  54 N7        30.04F
PINE BELT      SUNNY     84  57  39 N5        30.04F
$$

MSZ080>082-310000-
COASTAL MISSISSIPPI

CITY           SKY/WX    TMP DP  RH WIND       PRES   REMARKS
BAY ST LOUIS   SUNNY    N/A N/A N/A NE5       29.99F
BILOXI         SUNNY     83  65  53 SW6       29.99S
PASCAGOULA     SUNNY     85  61  44 VRB6      29.99S
GULFPORT       SUNNY     90  56  31 N7        29.98F
$$



USA.gov is the U.S. government's official web portal to all federal, state and local government web resources and services.